Lake Acworth Weather Center

Moon Phase Calendar



Lake Acworth Water Level
Online Cameras

 


      

Current Conditions in Acworth
3/1/2021 4:32:47 PM

53°F
Feels Like 48
Rain
Humidity
87%
Pressure
30.12"
Wind
9.2 mph (NNW)
Dew Point
50°F
UV Index
0/10 (Low)
Visibility
6 mi

Hourly Forecast

Date & Time Mon, Mar 1
4:00 PM
Mon, Mar 1
5:00 PM
Mon, Mar 1
6:00 PM
Mon, Mar 1
7:00 PM
Mon, Mar 1
8:00 PM
Mon, Mar 1
9:00 PM
Mon, Mar 1
10:00 PM
Mon, Mar 1
11:00 PM
Tue, Mar 2
12:00 AM
Tue, Mar 2
1:00 AM
Tue, Mar 2
2:00 AM
Tue, Mar 2
3:00 AM
Tue, Mar 2
4:00 AM
Tue, Mar 2
5:00 AM
Tue, Mar 2
6:00 AM
Tue, Mar 2
7:00 AM
Tue, Mar 2
8:00 AM
Tue, Mar 2
9:00 AM
Tue, Mar 2
10:00 AM
Tue, Mar 2
11:00 AM
Tue, Mar 2
12:00 PM
Tue, Mar 2
1:00 PM
Tue, Mar 2
2:00 PM
Tue, Mar 2
3:00 PM
Tue, Mar 2
4:00 PM
Tue, Mar 2
5:00 PM
Tue, Mar 2
6:00 PM
Tue, Mar 2
7:00 PM
Tue, Mar 2
8:00 PM
Tue, Mar 2
9:00 PM
Tue, Mar 2
10:00 PM
Tue, Mar 2
11:00 PM
Wed, Mar 3
12:00 AM
Wed, Mar 3
1:00 AM
Wed, Mar 3
2:00 AM
Wed, Mar 3
3:00 AM
Wed, Mar 3
4:00 AM
Wed, Mar 3
5:00 AM
Wed, Mar 3
6:00 AM
Wed, Mar 3
7:00 AM
Wed, Mar 3
8:00 AM
Wed, Mar 3
9:00 AM
Wed, Mar 3
10:00 AM
Wed, Mar 3
11:00 AM
Wed, Mar 3
12:00 PM
Wed, Mar 3
1:00 PM
Wed, Mar 3
2:00 PM
Wed, Mar 3
3:00 PM
Condition
Rain

Clouds

Rain

Clouds

Clouds

Clouds

Clouds

Clouds

Clouds

Clouds

Clouds

Clouds

Clouds

Clouds

Clouds

Clouds

Clouds

Clouds

Clouds

Clouds

Clouds

Clouds

Clouds

Clouds

Rain

Rain

Rain

Rain

Rain

Rain

Rain

Rain

Rain

Rain

Rain

Rain

Rain

Rain

Clouds

Clouds

Clouds

Clouds

Clouds

Clouds

Clouds

Clouds

Clouds

Clear
Temperature 53°F52°F50°F48°F47°F46°F45°F45°F45°F44°F44°F43°F43°F43°F43°F43°F44°F46°F48°F51°F53°F52°F53°F53°F49°F50°F46°F45°F45°F44°F44°F44°F43°F43°F43°F43°F43°F43°F42°F42°F44°F46°F48°F50°F52°F56°F58°F59°F
Feels Like 48°F45°F43°F41°F40°F39°F38°F39°F38°F37°F37°F37°F36°F38°F38°F37°F39°F40°F41°F43°F44°F43°F45°F46°F41°F42°F41°F39°F34°F36°F36°F38°F33°F39°F37°F37°F37°F37°F37°F38°F40°F42°F43°F44°F47°F50°F52°F53°F
Cloudiness 75%87%95%98%100%100%100%100%100%100%100%100%100%100%100%100%100%100%100%100%99%99%100%100%100%100%100%100%100%98%99%99%99%99%100%99%99%99%85%77%71%75%76%78%79%72%18%10%
Visibility 6 mi6 mi6 mi6 mi6 mi6 mi6 mi6 mi6 mi6 mi6 mi6 mi6 mi6 mi6 mi6 mi6 mi6 mi6 mi6 mi6 mi6 mi6 mi6 mi6 mi6 mi6 mi6 mi6 mi4 mi5 mi5 mi6 mi6 mi6 mi6 mi5 mi6 mi6 mi6 mi6 mi6 mi6 mi6 mi6 mi6 mi6 mi6 mi
Precipitation 71%77%89%82%0%0%0%0%0%0%0%0%0%0%0%0%0%0%0%0%0%0%6%2%53%61%93%100%100%100%100%100%100%100%100%100%100%100%80%80%0%0%0%0%0%0%0%0%
Humidity 87%85%84%81%77%74%75%76%77%75%74%74%74%75%76%76%73%69%66%54%45%47%47%51%68%68%82%84%81%84%85%87%86%86%88%88%90%89%89%91%90%86%84%81%75%68%61%58%
Dew Point 50°F48°F45°F43°F41°F39°F38°F38°F38°F37°F36°F36°F36°F36°F36°F36°F36°F37°F38°F35°F33°F33°F34°F36°F40°F40°F41°F41°F39°F39°F40°F40°F40°F40°F40°F40°F40°F40°F40°F40°F42°F43°F44°F44°F45°F45°F45°F45°F
Pressure 30.12"30.15"30.18"30.21"30.24"30.24"30.27"30.27"30.27"30.27"30.27"30.27"30.24"30.27"30.27"30.27"30.27"30.27"30.27"30.27"30.24"30.24"30.18"30.15"30.15"30.12"30.15"30.15"30.12"30.12"30.12"30.12"30.09"30.09"30.06"30.03"30.03"30.03"30.03"30.06"30.06"30.06"30.06"30.06"30.06"30.06"30.03"30.03"
Wind Speed 10.1 mph12.2 mph9.3 mph9.6 mph8.6 mph7.6 mph7.5 mph6.3 mph6.6 mph7.3 mph7.3 mph6.2 mph6.6 mph3.9 mph3.6 mph4.2 mph3.7 mph6.7 mph8 mph9.2 mph9.6 mph9.3 mph8.3 mph7.6 mph10.5 mph8.7 mph5.7 mph8.4 mph14.8 mph9 mph8.9 mph5.4 mph13.6 mph4.2 mph6.4 mph6.3 mph6.3 mph6.3 mph4.3 mph4 mph4.8 mph5.4 mph7.1 mph7 mph6.9 mph7.4 mph7.9 mph8.9 mph
Wind
Direction
323°
NW
341°
NNW
352°
N
342°
NNW
330°
NNW
334°
NNW
357°
N
352°
N
331°
NNW
343°
NNW
331°
NNW
341°
NNW
351°
N
353°
N

N
28°
NNE
73°
ENE
81°
E
99°
E
118°
ESE
111°
ESE
113°
ESE
97°
E
102°
ESE
113°
ESE
103°
ESE
85°
E
96°
E
97°
E
101°
E
91°
E
102°
ESE
91°
E
62°
ENE
64°
ENE
35°
NE
20°
NNE
67°
ENE

N
339°
NNW
350°
N
330°
NNW
334°
NNW
331°
NNW
319°
NW
325°
NW
327°
NNW
325°
NW

Daily Forecast

Date High Low Precip. Humidity
Today
Mar 1

Rain
66 °F
45 °F
100%
86%
Tuesday
Mar 2

Rain
53 °F
43 °F
100%
45%
Wednesday
Mar 3

Rain
59 °F
42 °F
100%
68%
Thursday
Mar 4

Clear
62 °F
40 °F
0%
49%
Friday
Mar 5

Rain
61 °F
43 °F
42%
41%
Saturday
Mar 6

Rain
48 °F
43 °F
100%
75%
Sunday
Mar 7

Clouds
62 °F
38 °F
0%
37%
Monday
Mar 8

Clear
66 °F
43 °F
0%
35%
Tuesday
Mar 9

Clouds
68 °F
47 °F
0%
49%
Wednesday
Mar 10

Clouds
72 °F
52 °F
0%
50%
Thursday
Mar 11

Clouds
74 °F
54 °F
0%
47%
Friday
Mar 12

Rain
69 °F
50 °F
99%
64%
Saturday
Mar 13

Rain
65 °F
46 °F
49%
41%
Sunday
Mar 14

Rain
56 °F
53 °F
96%
76%
Monday
Mar 15

Rain
68 °F
54 °F
100%
84%
Tuesday
Mar 16

Rain
52 °F
43 °F
78%
57%


Temperature 8-14 Day Outlook



Precipitation 8-14 Day Outlook




Quick Links
Lake Acworth News
Lake Acworth Photos
Lake Acworth Videos




About Us
Contact Us
Site Map
Search Site
Advertise With Us
   
Acworth.LakesOnline.com
THE LAKE ACWORTH WEBSITE

Copyright 2021, Lakes Online
Privacy    |    Legal